Location: Unspecified
(0.0000°N, 0.0000°E)
Time: 14:41:10
(UTC+00:00)

Courier 1B - Pass Details

Date: 18 February 2026
Orbit: 962 x 1208 km, 28.3° (Epoch: 16 March)

Event Time Altitude Azimuth Distance (km) Brightness Sun altitude
Exits shadow 03:36:13 52° 112° (ESE) 1,387 8.4 -38.5°
Drops below altitude 10° 03:41:28 10° 118° (ESE) 2,953 10.7 -37.2°
Sets 03:44:09 0° 119° (ESE) 3,874 11.6 -36.5°
